Content
SEND FEEDBACK

Daily
Averages
Monthly
Summary
United States of America

BATTENVILLE, NEW YORK


Home > North America > United States > New York
Elevation: 400 feet     Latitude: 43 07N     Longitude: 073 25W

WEATHER
 
SELECT A DAY
Number of Records: 183,924;   Date Range: 12/9/98 - 12/17/14
 
SHARE

PRINT THIS DATA

[ ← Previous Day ]
WEATHER ALMANAC - JANUARY 31, 2013
[ Next Day → ]
[ °C ]   °F
Weather ElementAverageHighLow
Temperature42.8 °F57.9 °F (5:54 am)24.8 °F (10:09 pm)
Dewpoint35.4 °F53.6 °F (3:36 am)10.9 °F (11:54 pm)
Humidity76.1 %94 % (12:42 am)48 % (12:54 pm)
Barometer29.21 in29.62 in (11:54 pm)28.92 in (5:54 am)
Wind Speed12 mph23 mph (6:54 am)
Wind Gust47.2 mph (6:54 am)
Weather ElementAverage
Visibility7.1 mi
Wind DirectionWSW (231.4 °)

Weather ElementTotal
Precipitation1.35 in
Heating Degree Days23.7 (Base 65)
Averaged from 35 records on January 31, 2013
WEATHER CONDITIONS BREAKOUT
WIND DIRECTION BREAKOUT
WEATHER BY HOUR - JANUARY 31, 2013
[ °C ]   °F
Local TimeTemperatureDewpointHumidityBarometerVisibilityWind DirectionWind SpeedGust SpeedPrecipitationEventsConditions
12:42 AM53.6 °F51.8 °F94 %29.27 in3.0 miCalm0.07 inRainLight Rain
12:54 AM54.0 °F51.1 °F90 %29.24 in6.0 miSouth (170°)6.9 mph0.08 inRainLight Rain
1:18 AM53.6 °F50.0 °F88 %29.21 in10.0 miSSE (160°)13.8 mph0.00 inOvercast
1:54 AM54.0 °F51.1 °F90 %29.15 in10.0 miSSE (150°)11.5 mph0.01 inRainLight Rain
2:04 AM53.6 °F51.8 °F94 %29.15 in10.0 miSSE (150°)12.7 mph19.6 mph0.00 inRainLight Rain
2:54 AM55.0 °F52.0 °F89 %29.07 in10.0 miSSE (160°)9.2 mph0.02 inOvercast
3:36 AM57.2 °F53.6 °F88 %29.01 in4.0 miWest (280°)10.4 mph24.2 mph0.07 inRainLight Rain
3:39 AM57.2 °F53.6 °F88 %29.01 in2.5 miWest (270°)8.1 mph21.9 mph0.10 inRainRain
3:46 AM55.4 °F53.6 °F94 %29.00 in1.5 miNW (320°)5.8 mph0.14 inRainRain
3:54 AM54.0 °F52.0 °F93 %29.00 in2.0 miNNW (330°)4.6 mph0.17 inRainRain
4:17 AM53.6 °F51.8 °F94 %28.99 in3.0 miVariable3.5 mph0.05 inRainLight Rain
4:27 AM53.6 °F51.8 °F94 %28.99 in2.5 miVariable3.5 mph0.09 inRainRain
4:43 AM55.4 °F51.8 °F88 %28.98 in4.0 miSSW (200°)10.4 mph17.3 mph0.14 inRainLight Rain
4:54 AM57.0 °F52.0 °F83 %28.97 in6.0 miSouth (190°)9.2 mph0.16 inRainLight Rain
5:54 AM57.9 °F51.1 °F78 %28.92 in8.0 miSSW (200°)12.7 mph26.5 mph0.11 inRainLight Rain
6:54 AM46.0 °F41.0 °F83 %29.01 in2.5 miWest (280°)23.0 mph47.2 mph0.07 inRainLight Rain
6:58 AM44.6 °F39.2 °F81 %29.03 in3.0 miWest (280°)18.4 mph47.2 mph0.00 inRainLight Rain
7:54 AM39.9 °F35.1 °F83 %29.09 in10.0 miWest (260°)11.5 mph21.9 mph0.03 inRainLight Rain
8:54 AM37.9 °F30.9 °F76 %29.15 in10.0 miWest (270°)13.8 mph26.5 mph0.01 inOvercast
9:07 AM37.4 °F32.0 °F81 %29.15 in9.0 miWNW (290°)13.8 mph25.3 mph0.01 inRainLight Rain
9:15 AM37.4 °F30.2 °F75 %29.16 in10.0 miWest (280°)11.5 mph25.3 mph0.01 inRainLight Rain
9:54 AM37.9 °F26.1 °F62 %29.19 in10.0 miWNW (290°)17.3 mph43.7 mph0.01 inOvercast
10:54 AM36.0 °F21.9 °F57 %29.25 in10.0 miWNW (290°)19.6 mph41.4 mphOvercast
11:54 AM36.0 °F19.0 °F50 %29.27 in10.0 miWest (280°)19.6 mph38.0 mphOvercast
12:54 PM35.1 °F17.1 °F48 %29.30 in10.0 miWest (280°)18.4 mph31.1 mphOvercast
1:54 PM33.1 °F16.0 °F50 %29.33 in10.0 miWNW (290°)21.9 mph34.5 mphOvercast
2:54 PM33.1 °F16.0 °F50 %29.35 in10.0 miWest (280°)19.6 mph32.2 mphOvercast
4:54 PM30.9 °F16.0 °F54 %29.43 in10.0 miWNW (300°)12.7 mph20.7 mphOvercast
5:54 PM28.9 °F19.0 °F67 %29.49 in9.0 miWest (280°)9.2 mph0.00 inOvercast
6:05 PM28.4 °F19.4 °F69 %29.48 in2.5 miWest (270°)10.4 mph21.9 mph0.00 inSnowLight Snow
6:12 PM28.4 °F17.6 °F64 %29.49 in9.0 miWest (280°)9.2 mph25.3 mph0.00 inOvercast
7:28 PM26.6 °F15.8 °F64 %29.53 in10.0 miWest (270°)10.4 mph20.7 mph0.00 inOvercast
10:09 PM24.8 °F17.6 °F74 %29.57 in3.0 miWSW (240°)9.2 mph24.2 mph0.00 inSnowLight Snow
10:23 PM24.8 °F17.6 °F74 %29.57 in9.0 miWSW (240°)10.4 mph18.4 mph0.00 inOvercast
11:54 PM25.0 °F10.9 °F55 %29.62 in10.0 miWest (270°)17.3 mph28.8 mphOvercast
Hourly data recorded from KDDH, located miles away from Battenville, New York







STORIES FROM OUR PARTNERS